Tracking 29892 objects as of 21-Nov-2024
HD Live streaming from Space Station
objects crossing your sky now

SL-12 R/B(2)

Track SL-12 R/B(2) now!


NORAD ID: 19020
Int'l Code: 1988-028D
Perigee: 36,419.7 km
Apogee: 36,593.0 km
Inclination: 13.4 °
Period: 1,472.7 minutes
Semi major axis: 42877 km
RCS: 2.0266 m2 (large)
Launch date: March 31, 1988
Source: Commonwealth of Independent States (former USSR) (CIS)
Launch site: TYURATAM MISSILE AND SPACE COMPLEX (TTMTR)

Note: This is a ROCKET BODY
Your satellite tracking list
Your tracking list is empty




NASA's NSSDC Master Catalog

Two Line Element Set (TLE):
1 19020U 88028D   24325.07688414 -.00000041  00000-0  00000-0 0  9998
2 19020  13.4376 334.7090 0020213 124.4893  66.3182  0.97782382130852
Source of the keplerian elements: AFSPC